DIAMOND RED (42783 NORAD) Tracking and Keplerian Element Data

This shows tracking and keplerian element data for the satellite.

Feedback or suggestion? Click here.




ElementValue
Catalog42783
NameDIAMOND RED
Epoch Orbit6370
Epoch Day228.64678379
Epoch Year2018
RAAN287.3303
Inclination97.3961
Eccentricity0.0011323
Argument of Perigee218.3771
Mean Anonmoly141.666
Mean Motion15.21569701
Decay Rate8.35E-06
L11 42783U 17036U 18228.64678379 .00000835 00000-0 40072-4 0 9995
L22 42783 97.3961 287.3303 0011323 218.3771 141.6660 15.21569701 63703

Live tracking and technical data element details for DIAMOND RED (NORAD 42783). DIAMOND RED can be tracked NOW for your location showing map with azimuth and elevation plus other details from your city location.

Track the satellite on the map from your city or location and see movement details for azimuth, elevation, latitude, longitude, range, height, and movement on the map or in text.







IsCatalogInMostPopularTable: catalog: 42783, numindb: 159
Update: records affected: 1



GetName: 42783 DIAMOND RED

Hit Count: updated at: Fri, 17 Aug 2018 13:20:17 GMT